owner,sensor,date,latitude,longitude,vertical_datum,wind_speed,wind_to_direction,wind_speed_of_gust,qcFlag 
TABS,ioos:station:wmo:42043:1,2010-06-01T00:00:00Z,28.9818,-94.9186,4.0,5.071824129,174.6830613,6.4,'11111222,11111222,11111222' 
TABS,ioos:station:wmo:42043:1,2010-06-01T00:30:00Z,28.9818,-94.9186,4.0,5.192494584,183.9757548,6.86,'11111222,11111222,11111222' 
TABS,ioos:station:wmo:42043:1,2010-06-01T01:00:00Z,28.9818,-94.9186,4.0,4.986481726,190.0481034,6.55,'11111222,11111222,11111222' 
TABS,ioos:station:wmo:42043:1,2010-06-01T01:30:00Z,28.9818,-94.9186,4.0,4.825453347,190.1457312,6.05,'11111222,11111222,11111222' 
TABS,ioos:station:wmo:42043:1,2010-06-01T02:00:00Z,28.9818,-94.9186,4.0,4.95867926,184.9749444,6.04,'11111222,11111222,11111222' 
TABS,ioos:station:wmo:42043:1,2010-06-01T02:30:00Z,28.9818,-94.9186,4.0,5.605515141,186.4532628,6.75,'11111222,11111222,11111222' 
TABS,ioos:station:wmo:42043:1,2010-06-01T03:00:00Z,28.9818,-94.9186,4.0,5.892172774,181.556246,7.1,'11111222,11111222,11111222' 
TABS,ioos:station:wmo:42043:1,2010-06-01T03:30:00Z,28.9818,-94.9186,4.0,6.099713108,175.3925922,7.18,'11111222,11111222,11111222' 
TABS,ioos:station:wmo:42043:1,2010-06-01T04:00:00Z,28.9818,-94.9186,4.0,5.260769906,179.0199624,6.44,'11111222,11111222,11111222' 
TABS,ioos:station:wmo:42043:1,2010-06-01T04:30:00Z,28.9818,-94.9186,4.0,5.340234077,179.4637501,6.52,'11111222,11111222,11111222' 
TABS,ioos:station:wmo:42043:1,2010-06-01T05:00:00Z,28.9818,-94.9186,4.0,5.650884886,181.0141868,6.62,'11111222,11111222,11111222' 
TABS,ioos:station:wmo:42043:1,2010-06-01T05:30:00Z,28.9818,-94.9186,4.0,5.590965927,176.4110995,6.29,'11111222,11111222,11111222' 
TABS,ioos:station:wmo:42043:1,2010-06-01T06:00:00Z,28.9818,-94.9186,4.0,4.580174669,180.5005964,5.81,'11111222,11111222,11111222' 
TABS,ioos:station:wmo:42043:1,2010-06-01T06:30:00Z,28.9818,-94.9186,4.0,4.735588665,182.7840639,5.92,'11111222,11111222,11111222' 
TABS,ioos:station:wmo:42043:1,2010-06-01T07:00:00Z,28.9818,-94.9186,4.0,4.324627152,182.6508939,5.48,'11111222,11111222,11111222' 
TABS,ioos:station:wmo:42043:1,2010-06-01T07:30:00Z,28.9818,-94.9186,4.0,4.612125324,178.2607472,5.79,'11111222,11111222,11111222' 
TABS,ioos:station:wmo:42043:1,2010-06-01T08:00:00Z,28.9818,-94.9186,4.0,4.340414727,180.7922657,5.34,'11111222,11111222,11111222' 
TABS,ioos:station:wmo:42043:1,2010-06-01T08:30:00Z,28.9818,-94.9186,4.0,3.891554959,178.3804567,5.02,'11111222,11111222,11111222' 
TABS,ioos:station:wmo:42043:1,2010-06-01T09:00:00Z,28.9818,-94.9186,4.0,3.822734623,188.575423,4.85,'11111222,11111222,11111222' 
TABS,ioos:station:wmo:42043:1,2010-06-01T09:30:00Z,28.9818,-94.9186,4.0,3.916746098,190.5928825,5.15,'11111222,11111222,11111222' 
TABS,ioos:station:wmo:42043:1,2010-06-01T10:00:00Z,28.9818,-94.9186,4.0,4.068722158,195.539361,4.94,'11111222,11111222,11111222' 
TABS,ioos:station:wmo:42043:1,2010-06-01T10:30:00Z,28.9818,-94.9186,4.0,3.056010471,194.4001981,3.95,'11111222,11111222,11111222' 
TABS,ioos:station:wmo:42043:1,2010-06-01T11:00:00Z,28.9818,-94.9186,4.0,2.739945255,192.007309,3.9,'11111222,11111222,11111222' 
TABS,ioos:station:wmo:42043:1,2010-06-01T11:30:00Z,28.9818,-94.9186,4.0,2.543108334,162.8478288,3.86,'11111222,11111222,11111222' 
TABS,ioos:station:wmo:42043:1,2010-06-01T12:00:00Z,28.9818,-94.9186,4.0,2.090095692,179.4519435,3.24,'11111222,11111222,11111222' 
TABS,ioos:station:wmo:42043:1,2010-06-01T12:30:00Z,28.9818,-94.9186,4.0,2.406075643,206.1392174,3.09,'11111222,11111222,11111222' 
TABS,ioos:station:wmo:42043:1,2010-06-01T13:00:00Z,28.9818,-94.9186,4.0,1.84439692,187.1637412,2.94,'11111222,11111222,11111222' 
TABS,ioos:station:wmo:42043:1,2010-06-01T13:30:00Z,28.9818,-94.9186,4.0,1.999024762,167.2849032,2.82,'11111222,11111222,11111222' 
TABS,ioos:station:wmo:42043:1,2010-06-01T14:00:00Z,28.9818,-94.9186,4.0,1.99218473,173.6600335,2.88,'11111222,11111222,11111222' 
TABS,ioos:station:wmo:42043:1,2010-06-01T14:30:00Z,28.9818,-94.9186,4.0,2.145600149,168.1665928,3.02,'11111222,11111222,11111222' 
TABS,ioos:station:wmo:42043:1,2010-06-01T15:00:00Z,28.9818,-94.9186,4.0,2.586812711,161.9855587,3.56,'11111222,11111222,11111222' 
TABS,ioos:station:wmo:42043:1,2010-06-01T15:30:00Z,28.9818,-94.9186,4.0,2.304972885,170.0066536,3.38,'11111222,11111222,11111222' 
TABS,ioos:station:wmo:42043:1,2010-06-01T16:00:00Z,28.9818,-94.9186,4.0,2.751908429,160.2483954,3.4,'11111222,11111222,11111222' 
TABS,ioos:station:wmo:42043:1,2010-06-01T16:30:00Z,28.9818,-94.9186,4.0,2.026153992,167.7474796,2.85,'11111222,11111222,11111222' 
TABS,ioos:station:wmo:42043:1,2010-06-01T17:00:00Z,28.9818,-94.9186,4.0,1.718167629,159.5613023,3.24,'11111222,11111222,11111222' 
TABS,ioos:station:wmo:42043:1,2010-06-01T17:30:00Z,28.9818,-94.9186,4.0,1.306139349,168.518246,2.24,'11111222,11111222,11111222' 
TABS,ioos:station:wmo:42043:1,2010-06-01T18:00:00Z,28.9818,-94.9186,4.0,1.842009772,149.6766745,2.95,'11111222,11111222,11111222' 
TABS,ioos:station:wmo:42043:1,2010-06-01T18:30:00Z,28.9818,-94.9186,4.0,1.995294464,137.0312252,3.58,'11111222,11111222,11111222' 
TABS,ioos:station:wmo:42043:1,2010-06-01T19:00:00Z,28.9818,-94.9186,4.0,2.89385556,130.5157202,4.1,'11111222,11111222,11111222' 
TABS,ioos:station:wmo:42043:1,2010-06-01T19:30:00Z,28.9818,-94.9186,4.0,3.147983482,123.3370489,4.42,'11111222,11111222,11111222' 
TABS,ioos:station:wmo:42043:1,2010-06-01T20:00:00Z,28.9818,-94.9186,4.0,3.301938824,131.3168379,4.48,'11111222,11111222,11111222' 
TABS,ioos:station:wmo:42043:1,2010-06-01T20:30:00Z,28.9818,-94.9186,4.0,3.628291609,126.1438105,4.69,'11111222,11111222,11111222' 
TABS,ioos:station:wmo:42043:1,2010-06-01T21:00:00Z,28.9818,-94.9186,4.0,4.293436852,123.9865086,5.33,'11111222,11111222,11111222' 
TABS,ioos:station:wmo:42043:1,2010-06-01T21:30:00Z,28.9818,-94.9186,4.0,4.490400873,117.3072444,5.89,'11111222,11111222,11111222' 
TABS,ioos:station:wmo:42043:1,2010-06-01T22:00:00Z,28.9818,-94.9186,4.0,4.262980178,117.827754,5.31,'11111222,11111222,11111222' 
TABS,ioos:station:wmo:42043:1,2010-06-01T22:30:00Z,28.9818,-94.9186,4.0,5.134374353,127.5621212,6.37,'11111222,11111222,11111222' 
TABS,ioos:station:wmo:42043:1,2010-06-01T23:00:00Z,28.9818,-94.9186,4.0,4.383206589,138.0519604,5.43,'11111222,11111222,11111222' 
TABS,ioos:station:wmo:42043:1,2010-06-01T23:30:00Z,28.9818,-94.9186,4.0,4.514521016,138.8621379,5.71,'11111222,11111222,11111222' 
TABS,ioos:station:wmo:42043:1,2010-06-02T00:00:00Z,28.9818,-94.9186,4.0,5.298226118,147.3300365,6.91,'11111222,11111222,11111222' 
TABS,ioos:station:wmo:42043:1,2010-06-02T00:30:00Z,28.9818,-94.9186,4.0,7.066102179,155.5026275,8.69,'11111222,11111222,11111222' 
TABS,ioos:station:wmo:42043:1,2010-06-02T01:00:00Z,28.9818,-94.9186,4.0,6.058324851,151.6162517,7.4,'11111222,11111222,11111222' 
TABS,ioos:station:wmo:42043:1,2010-06-02T01:30:00Z,28.9818,-94.9186,4.0,6.691427351,156.5768102,8.09,'11111222,11111222,11111222' 
TABS,ioos:station:wmo:42043:1,2010-06-02T02:00:00Z,28.9818,-94.9186,4.0,6.267256178,165.5870602,7.67,'11111222,11111222,11111222' 
TABS,ioos:station:wmo:42043:1,2010-06-02T02:30:00Z,28.9818,-94.9186,4.0,6.730185733,160.6499447,8.16,'11111222,11111222,11111222' 
TABS,ioos:station:wmo:42043:1,2010-06-02T03:00:00Z,28.9818,-94.9186,4.0,7.245722876,162.4905577,9.17,'11111222,11111222,11111222' 
TABS,ioos:station:wmo:42043:1,2010-06-02T03:30:00Z,28.9818,-94.9186,4.0,7.125791184,162.6078534,9.11,'11111222,11111222,11111222' 
TABS,ioos:station:wmo:42043:1,2010-06-02T04:00:00Z,28.9818,-94.9186,4.0,7.484196684,160.1610435,9.32,'11111222,11111222,11111222' 
TABS,ioos:station:wmo:42043:1,2010-06-02T04:30:00Z,28.9818,-94.9186,4.0,7.324595552,171.2838048,8.71,'11111222,11111222,11111222' 
TABS,ioos:station:wmo:42043:1,2010-06-02T05:00:00Z,28.9818,-94.9186,4.0,6.804594036,177.8947012,8.48,'11111222,11111222,11111222' 
TABS,ioos:station:wmo:42043:1,2010-06-02T05:30:00Z,28.9818,-94.9186,4.0,6.842368011,178.4927782,8.09,'11111222,11111222,11111222' 
TABS,ioos:station:wmo:42043:1,2010-06-02T06:00:00Z,28.9818,-94.9186,4.0,6.620611754,179.2213146,8.08,'11111222,11111222,11111222' 
TABS,ioos:station:wmo:42043:1,2010-06-02T06:30:00Z,28.9818,-94.9186,4.0,6.752399573,181.5277323,8.13,'11111222,11111222,11111222' 
TABS,ioos:station:wmo:42043:1,2010-06-02T07:00:00Z,28.9818,-94.9186,4.0,5.960008389,179.9040769,7.52,'11111222,11111222,11111222' 
TABS,ioos:station:wmo:42043:1,2010-06-02T07:30:00Z,28.9818,-94.9186,4.0,5.672539114,188.5159729,6.76,'11111222,11111222,11111222' 
TABS,ioos:station:wmo:42043:1,2010-06-02T08:00:00Z,28.9818,-94.9186,4.0,5.77208801,189.6746552,7.04,'11111222,11111222,11111222' 
TABS,ioos:station:wmo:42043:1,2010-06-02T08:30:00Z,28.9818,-94.9186,4.0,5.220507638,192.838499,6.61,'11111222,11111222,11111222' 
TABS,ioos:station:wmo:42043:1,2010-06-02T09:00:00Z,28.9818,-94.9186,4.0,4.275195902,188.3387785,5.36,'11111222,11111222,11111222' 
TABS,ioos:station:wmo:42043:1,2010-06-02T09:30:00Z,28.9818,-94.9186,4.0,5.26343044,194.7492794,6.39,'11111222,11111222,11111222' 
TABS,ioos:station:wmo:42043:1,2010-06-02T10:00:00Z,28.9818,-94.9186,4.0,4.803373814,200.4724421,6.02,'11111222,11111222,11111222' 
TABS,ioos:station:wmo:42043:1,2010-06-02T10:30:00Z,28.9818,-94.9186,4.0,3.842668344,187.4765993,4.89,'11111222,11111222,11111222' 
TABS,ioos:station:wmo:42043:1,2010-06-02T11:00:00Z,28.9818,-94.9186,4.0,3.761196618,184.4222724,4.77,'11111222,11111222,11111222' 
TABS,ioos:station:wmo:42043:1,2010-06-02T11:30:00Z,28.9818,-94.9186,4.0,4.489743868,189.357612,5.84,'11111222,11111222,11111222' 
TABS,ioos:station:wmo:42043:1,2010-06-02T12:00:00Z,28.9818,-94.9186,4.0,3.917779984,188.9576102,4.99,'11111222,11111222,11111222' 
TABS,ioos:station:wmo:42043:1,2010-06-02T12:30:00Z,28.9818,-94.9186,4.0,3.152982715,186.9223547,4.12,'11111222,11111222,11111222' 
TABS,ioos:station:wmo:42043:1,2010-06-02T13:00:00Z,28.9818,-94.9186,4.0,3.610346244,179.2066927,5.33,'11111222,11111222,11111222' 
TABS,ioos:station:wmo:42043:1,2010-06-02T13:30:00Z,28.9818,-94.9186,4.0,3.153569406,182.7265151,4.29,'11111222,11111222,11111222' 
TABS,ioos:station:wmo:42043:1,2010-06-02T14:00:00Z,28.9818,-94.9186,4.0,3.512847848,186.5385168,4.48,'11111222,11111222,11111222' 
TABS,ioos:station:wmo:42043:1,2010-06-02T14:30:00Z,28.9818,-94.9186,4.0,3.181571939,178.1990542,4.16,'11111222,11111222,11111222' 
TABS,ioos:station:wmo:42043:1,2010-06-02T15:00:00Z,28.9818,-94.9186,4.0,3.482944157,184.9414378,4.86,'11111222,11111222,11111222' 
TABS,ioos:station:wmo:42043:1,2010-06-02T15:30:00Z,28.9818,-94.9186,4.0,3.897588998,172.036442,5.37,'11111222,11111222,11111222' 
TABS,ioos:station:wmo:42043:1,2010-06-02T16:00:00Z,28.9818,-94.9186,4.0,3.63446007,177.1614293,4.7,'11111222,11111222,11111222' 
TABS,ioos:station:wmo:42043:1,2010-06-02T16:30:00Z,28.9818,-94.9186,4.0,4.138067182,191.1471909,5.38,'11111222,11111222,11111222' 
TABS,ioos:station:wmo:42043:1,2010-06-02T17:00:00Z,28.9818,-94.9186,4.0,4.642628566,193.1983001,5.64,'11111222,11111222,11111222' 
TABS,ioos:station:wmo:42043:1,2010-06-02T17:30:00Z,28.9818,-94.9186,4.0,4.377270839,187.48239,5.69,'11111222,11111222,11111222' 
TABS,ioos:station:wmo:42043:1,2010-06-02T18:00:00Z,28.9818,-94.9186,4.0,4.942974813,186.6219991,6.66,'11111222,11111222,11111222' 
TABS,ioos:station:wmo:42043:1,2010-06-02T18:30:00Z,28.9818,-94.9186,4.0,5.883748805,182.0456142,7.68,'11111222,11111222,11111222' 
TABS,ioos:station:wmo:42043:1,2010-06-02T19:00:00Z,28.9818,-94.9186,4.0,6.16993517,176.7482725,7.66,'11111222,11111222,11111222' 
TABS,ioos:station:wmo:42043:1,2010-06-02T19:30:00Z,28.9818,-94.9186,4.0,5.667397992,173.4144185,7.17,'11111222,11111222,11111222' 
TABS,ioos:station:wmo:42043:1,2010-06-02T20:00:00Z,28.9818,-94.9186,4.0,5.443013871,174.729552,6.8,'11111222,11111222,11111222' 
TABS,ioos:station:wmo:42043:1,2010-06-02T20:30:00Z,28.9818,-94.9186,4.0,5.85908696,171.8562976,7.38,'11111222,11111222,11111222' 
TABS,ioos:station:wmo:42043:1,2010-06-02T21:00:00Z,28.9818,-94.9186,4.0,5.708537466,167.3516807,7.21,'11111222,11111222,11111222' 
TABS,ioos:station:wmo:42043:1,2010-06-02T21:30:00Z,28.9818,-94.9186,4.0,5.578530272,157.6648201,7.14,'11111222,11111222,11111222' 
TABS,ioos:station:wmo:42043:1,2010-06-02T22:00:00Z,28.9818,-94.9186,4.0,5.029135115,156.4426461,6.24,'11111222,11111222,11111222' 
TABS,ioos:station:wmo:42043:1,2010-06-02T22:30:00Z,28.9818,-94.9186,4.0,4.908737108,159.2392941,6.28,'11111222,11111222,11111222' 
TABS,ioos:station:wmo:42043:1,2010-06-02T23:00:00Z,28.9818,-94.9186,4.0,5.351607235,163.8342588,6.92,'11111222,11111222,11111222' 
TABS,ioos:station:wmo:42043:1,2010-06-02T23:30:00Z,28.9818,-94.9186,4.0,6.075862079,156.2196982,7.5,'11111222,11111222,11111222' 
TABS,ioos:station:wmo:42043:1,2010-06-03T00:00:00Z,28.9818,-94.9186,4.0,6.539143675,152.4947481,8.22,'11111222,11111222,11111222' 
TABS,ioos:station:wmo:42043:1,2010-06-03T00:30:00Z,28.9818,-94.9186,4.0,6.962312834,157.4500318,9.3,'11111222,11111222,11111222' 
TABS,ioos:station:wmo:42043:1,2010-06-03T01:00:00Z,28.9818,-94.9186,4.0,6.793320249,158.9506379,9.44,'11111222,11111222,11111222' 
TABS,ioos:station:wmo:42043:1,2010-06-03T01:30:00Z,28.9818,-94.9186,4.0,6.391095368,161.1967579,8.44,'11111222,11111222,11111222' 
TABS,ioos:station:wmo:42043:1,2010-06-03T02:00:00Z,28.9818,-94.9186,4.0,7.254267709,161.5153521,9.26,'11111222,11111222,11111222' 
TABS,ioos:station:wmo:42043:1,2010-06-03T02:30:00Z,28.9818,-94.9186,4.0,8.141547764,157.4670131,10.14,'11111222,11111222,11111222' 
TABS,ioos:station:wmo:42043:1,2010-06-03T03:00:00Z,28.9818,-94.9186,4.0,7.732334706,169.7948021,9.35,'11111222,11111222,11111222' 
TABS,ioos:station:wmo:42043:1,2010-06-03T03:30:00Z,28.9818,-94.9186,4.0,6.853502754,176.403025,8.66,'11111222,11111222,11111222' 
TABS,ioos:station:wmo:42043:1,2010-06-03T04:00:00Z,28.9818,-94.9186,4.0,8.603092467,174.2631233,10.28,'11111222,11111222,11111222' 
TABS,ioos:station:wmo:42043:1,2010-06-03T04:30:00Z,28.9818,-94.9186,4.0,8.181344633,172.9794477,10.18,'11111222,11111222,11111222' 
TABS,ioos:station:wmo:42043:1,2010-06-03T05:00:00Z,28.9818,-94.9186,4.0,8.50146458,172.5659143,10.55,'11111222,11111222,11111222' 
TABS,ioos:station:wmo:42043:1,2010-06-03T05:30:00Z,28.9818,-94.9186,4.0,8.958978736,175.3906001,11.69,'11111222,11111222,11111222' 
TABS,ioos:station:wmo:42043:1,2010-06-03T06:00:00Z,28.9818,-94.9186,4.0,9.298698834,175.4975478,11.62,'11111222,11111222,11111222' 
TABS,ioos:station:wmo:42043:1,2010-06-03T06:30:00Z,28.9818,-94.9186,4.0,9.196026316,173.1302342,11.3,'11111222,11111222,11111222' 
TABS,ioos:station:wmo:42043:1,2010-06-03T07:00:00Z,28.9818,-94.9186,4.0,9.782474125,178.7115687,12.02,'11111222,11111222,11111222' 
TABS,ioos:station:wmo:42043:1,2010-06-03T07:30:00Z,28.9818,-94.9186,4.0,13.83017715,241.6375815,24.49,'11111222,11111222,11111222' 
TABS,ioos:station:wmo:42043:1,2010-06-03T08:00:00Z,28.9818,-94.9186,4.0,8.053899677,265.5849363,11.44,'11111222,11111222,11111222' 
TABS,ioos:station:wmo:42043:1,2010-06-03T08:30:00Z,28.9818,-94.9186,4.0,7.305429488,245.9260816,9.5,'11111222,11111222,11111222' 
TABS,ioos:station:wmo:42043:1,2010-06-03T09:00:00Z,28.9818,-94.9186,4.0,7.458290689,220.1597858,9.88,'11111222,11111222,11111222' 
TABS,ioos:station:wmo:42043:1,2010-06-03T09:30:00Z,28.9818,-94.9186,4.0,4.36807738,193.9091684,5.67,'11111222,11111222,11111222' 
TABS,ioos:station:wmo:42043:1,2010-06-03T10:00:00Z,28.9818,-94.9186,4.0,4.114911907,152.501136,5.93,'11111222,11111222,11111222' 
TABS,ioos:station:wmo:42043:1,2010-06-03T10:30:00Z,28.9818,-94.9186,4.0,1.938762492,227.0902595,3.62,'11111222,11111222,11111222' 
TABS,ioos:station:wmo:42043:1,2010-06-03T11:00:00Z,28.9818,-94.9186,4.0,8.168537201,277.951531,10.38,'11111222,11111222,11111222' 
TABS,ioos:station:wmo:42043:1,2010-06-03T11:30:00Z,28.9818,-94.9186,4.0,7.409453421,285.4992391,9.28,'11111222,11111222,11111222' 
TABS,ioos:station:wmo:42043:1,2010-06-03T12:00:00Z,28.9818,-94.9186,4.0,7.088018059,290.4803094,9.04,'11111222,11111222,11111222' 
TABS,ioos:station:wmo:42043:1,2010-06-03T12:30:00Z,28.9818,-94.9186,4.0,7.421381273,308.5994321,9.95,'11111222,11111222,11111222' 
TABS,ioos:station:wmo:42043:1,2010-06-03T13:00:00Z,28.9818,-94.9186,4.0,6.817228176,314.1678588,8.82,'11111222,11111222,11111222' 
TABS,ioos:station:wmo:42043:1,2010-06-03T13:30:00Z,28.9818,-94.9186,4.0,6.639171635,310.4795133,8.31,'11111222,11111222,11111222' 
TABS,ioos:station:wmo:42043:1,2010-06-03T14:00:00Z,28.9818,-94.9186,4.0,6.457592431,313.6822645,8.2,'11111222,11111222,11111222' 
TABS,ioos:station:wmo:42043:1,2010-06-03T14:30:00Z,28.9818,-94.9186,4.0,4.358864531,321.0526721,5.9,'11111222,11111222,11111222' 
TABS,ioos:station:wmo:42043:1,2010-06-03T15:00:00Z,28.9818,-94.9186,4.0,3.851610053,310.4721193,4.93,'11111222,11111222,11111222' 
TABS,ioos:station:wmo:42043:1,2010-06-03T15:30:00Z,28.9818,-94.9186,4.0,3.702566677,277.6048515,4.95,'11111222,11111222,11111222' 
TABS,ioos:station:wmo:42043:1,2010-06-03T16:00:00Z,28.9818,-94.9186,4.0,4.311960111,268.2723489,5.88,'11111222,11111222,11111222' 
TABS,ioos:station:wmo:42043:1,2010-06-03T16:30:00Z,28.9818,-94.9186,4.0,3.760917441,250.2642393,5.24,'11111222,11111222,11111222' 
TABS,ioos:station:wmo:42043:1,2010-06-03T17:00:00Z,28.9818,-94.9186,4.0,3.736642878,229.2324854,4.99,'11111222,11111222,11111222' 
TABS,ioos:station:wmo:42043:1,2010-06-03T17:30:00Z,28.9818,-94.9186,4.0,4.787744772,225.9309718,6.12,'11111222,11111222,11111222' 
TABS,ioos:station:wmo:42043:1,2010-06-03T18:00:00Z,28.9818,-94.9186,4.0,6.581162511,231.3538786,8.06,'11111222,11111222,11111222' 
TABS,ioos:station:wmo:42043:1,2010-06-03T18:30:00Z,28.9818,-94.9186,4.0,6.177782774,230.2538957,8.01,'11111222,11111222,11111222' 
TABS,ioos:station:wmo:42043:1,2010-06-03T19:00:00Z,28.9818,-94.9186,4.0,6.805247975,223.3329272,9.42,'11111222,11111222,11111222' 
TABS,ioos:station:wmo:42043:1,2010-06-03T19:30:00Z,28.9818,-94.9186,4.0,7.441034874,223.5843414,9.85,'11111222,11111222,11111222' 
TABS,ioos:station:wmo:42043:1,2010-06-03T20:00:00Z,28.9818,-94.9186,4.0,7.356969485,223.3478044,9.75,'11111222,11111222,11111222' 
TABS,ioos:station:wmo:42043:1,2010-06-03T20:30:00Z,28.9818,-94.9186,4.0,6.895600046,223.883716,8.61,'11111222,11111222,11111222' 
TABS,ioos:station:wmo:42043:1,2010-06-03T21:00:00Z,28.9818,-94.9186,4.0,6.614786467,240.3733677,8.55,'11111222,11111222,11111222' 
TABS,ioos:station:wmo:42043:1,2010-06-03T21:30:00Z,28.9818,-94.9186,4.0,7.865042912,240.2732597,10.18,'11111222,11111222,11111222' 
TABS,ioos:station:wmo:42043:1,2010-06-03T22:00:00Z,28.9818,-94.9186,4.0,8.358528579,228.3950208,10.31,'11111222,11111222,11111222' 
TABS,ioos:station:wmo:42043:1,2010-06-03T22:30:00Z,28.9818,-94.9186,4.0,7.580270444,243.4350109,11.37,'11111222,11111222,11111222' 
TABS,ioos:station:wmo:42043:1,2010-06-03T23:00:00Z,28.9818,-94.9186,4.0,6.881460601,226.1187886,8.54,'11111222,11111222,11111222' 
TABS,ioos:station:wmo:42043:1,2010-06-03T23:30:00Z,28.9818,-94.9186,4.0,7.60711509,243.5360614,9.88,'11111222,11111222,11111222' 
TABS,ioos:station:wmo:42043:1,2010-06-04T00:00:00Z,28.9818,-94.9186,4.0,7.744888637,250.9334406,10.6,'11111222,11111222,11111222' 
TABS,ioos:station:wmo:42043:1,2010-06-04T00:30:00Z,28.9818,-94.9186,4.0,7.534666549,245.2036732,9.45,'11111222,11111222,11111222' 
TABS,ioos:station:wmo:42043:1,2010-06-04T01:00:00Z,28.9818,-94.9186,4.0,8.752742427,244.1961756,11.58,'11111222,11111222,11111222' 
TABS,ioos:station:wmo:42043:1,2010-06-04T01:30:00Z,28.9818,-94.9186,4.0,8.649445069,243.9386308,10.97,'11111222,11111222,11111222' 
TABS,ioos:station:wmo:42043:1,2010-06-04T02:00:00Z,28.9818,-94.9186,4.0,8.577330587,250.5933587,10.87,'11111222,11111222,11111222' 
TABS,ioos:station:wmo:42043:1,2010-06-04T02:30:00Z,28.9818,-94.9186,4.0,8.497252497,251.9702298,10.62,'11111222,11111222,11111222' 
TABS,ioos:station:wmo:42043:1,2010-06-04T03:00:00Z,28.9818,-94.9186,4.0,6.809735678,240.7248142,9.06,'11111222,11111222,11111222' 
TABS,ioos:station:wmo:42043:1,2010-06-04T03:30:00Z,28.9818,-94.9186,4.0,8.761375463,248.6479623,11.0,'11111222,11111222,11111222' 
TABS,ioos:station:wmo:42043:1,2010-06-04T04:00:00Z,28.9818,-94.9186,4.0,3.612215387,96.35811408,4.54,'11111222,11111222,11111222' 
TABS,ioos:station:wmo:42043:1,2010-06-04T04:30:00Z,28.9818,-94.9186,4.0,6.605527988,243.861714,8.55,'11111222,11111222,11111222' 
TABS,ioos:station:wmo:42043:1,2010-06-04T05:00:00Z,28.9818,-94.9186,4.0,7.043869675,255.1943693,8.99,'11111222,11111222,11111222' 
TABS,ioos:station:wmo:42043:1,2010-06-04T05:30:00Z,28.9818,-94.9186,4.0,7.306161783,267.6467086,9.3,'11111222,11111222,11111222' 
TABS,ioos:station:wmo:42043:1,2010-06-04T06:00:00Z,28.9818,-94.9186,4.0,7.12699095,281.6567659,9.14,'11111222,11111222,11111222' 
TABS,ioos:station:wmo:42043:1,2010-06-04T06:30:00Z,28.9818,-94.9186,4.0,6.872328572,287.617582,8.39,'11111222,11111222,11111222' 
TABS,ioos:station:wmo:42043:1,2010-06-04T07:00:00Z,28.9818,-94.9186,4.0,5.838878317,298.3206278,7.32,'11111222,11111222,11111222' 
TABS,ioos:station:wmo:42043:1,2010-06-04T07:30:00Z,28.9818,-94.9186,4.0,6.061699432,277.4884417,7.75,'11111222,11111222,11111222' 
TABS,ioos:station:wmo:42043:1,2010-06-04T08:00:00Z,28.9818,-94.9186,4.0,6.832642241,271.593465,8.48,'11111222,11111222,11111222' 
TABS,ioos:station:wmo:42043:1,2010-06-04T08:30:00Z,28.9818,-94.9186,4.0,6.552220997,266.500039,8.47,'11111222,11111222,11111222' 
TABS,ioos:station:wmo:42043:1,2010-06-04T09:00:00Z,28.9818,-94.9186,4.0,6.762018929,256.3131487,9.0,'11111222,11111222,11111222' 
TABS,ioos:station:wmo:42043:1,2010-06-04T09:30:00Z,28.9818,-94.9186,4.0,6.626771461,258.7748759,8.63,'11111222,11111222,11111222' 
TABS,ioos:station:wmo:42043:1,2010-06-04T10:00:00Z,28.9818,-94.9186,4.0,8.123035147,266.7536637,10.06,'11111222,11111222,11111222' 
TABS,ioos:station:wmo:42043:1,2010-06-04T10:30:00Z,28.9818,-94.9186,4.0,7.880158628,272.9096003,9.53,'11111222,11111222,11111222' 
TABS,ioos:station:wmo:42043:1,2010-06-04T11:00:00Z,28.9818,-94.9186,4.0,6.415177316,263.1962602,7.82,'11111222,11111222,11111222' 
TABS,ioos:station:wmo:42043:1,2010-06-04T11:30:00Z,28.9818,-94.9186,4.0,7.07350691,254.9225222,8.96,'11111222,11111222,11111222' 
TABS,ioos:station:wmo:42043:1,2010-06-04T12:00:00Z,28.9818,-94.9186,4.0,7.228969498,251.6152217,9.86,'11111222,11111222,11111222' 
TABS,ioos:station:wmo:42043:1,2010-06-04T12:30:00Z,28.9818,-94.9186,4.0,7.427152887,254.298361,9.27,'11111222,11111222,11111222' 
TABS,ioos:station:wmo:42043:1,2010-06-04T13:00:00Z,28.9818,-94.9186,4.0,7.178147393,263.3601255,8.96,'11111222,11111222,11111222' 
TABS,ioos:station:wmo:42043:1,2010-06-04T13:30:00Z,28.9818,-94.9186,4.0,6.673305028,271.8033152,8.19,'11111222,11111222,11111222' 
TABS,ioos:station:wmo:42043:1,2010-06-04T14:00:00Z,28.9818,-94.9186,4.0,6.422561794,277.3352377,7.96,'11111222,11111222,11111222' 
TABS,ioos:station:wmo:42043:1,2010-06-04T14:30:00Z,28.9818,-94.9186,4.0,6.585863649,279.2620665,7.75,'11111222,11111222,11111222' 
TABS,ioos:station:wmo:42043:1,2010-06-04T15:00:00Z,28.9818,-94.9186,4.0,6.016194811,278.5072002,7.33,'11111222,11111222,11111222' 
TABS,ioos:station:wmo:42043:1,2010-06-04T15:30:00Z,28.9818,-94.9186,4.0,5.953906281,278.4022696,7.58,'11111222,11111222,11111222' 
TABS,ioos:station:wmo:42043:1,2010-06-04T16:00:00Z,28.9818,-94.9186,4.0,5.444859961,272.4209843,6.82,'11111222,11111222,11111222' 
TABS,ioos:station:wmo:42043:1,2010-06-04T16:30:00Z,28.9818,-94.9186,4.0,3.987204535,275.3245156,4.78,'11111222,11111222,11111222' 
TABS,ioos:station:wmo:42043:1,2010-06-04T17:00:00Z,28.9818,-94.9186,4.0,3.71597901,287.7035117,4.73,'11111222,11111222,11111222' 
TABS,ioos:station:wmo:42043:1,2010-06-04T17:30:00Z,28.9818,-94.9186,4.0,2.857218928,286.4687177,3.79,'11111222,11111222,11111222' 
TABS,ioos:station:wmo:42043:1,2010-06-04T18:00:00Z,28.9818,-94.9186,4.0,1.595524992,229.3209001,2.4,'11111222,11111222,11111222' 
TABS,ioos:station:wmo:42043:1,2010-06-04T18:30:00Z,28.9818,-94.9186,4.0,3.526386252,191.9474166,4.67,'11111222,11111222,11111222' 